sat.trackr.live / text

‹ back to catalog

ONEWEB-0579

NORAD 56068 · 2023-043Y

PAYLOAD ACTIVE UNKNOWN

§ Identity

Operator
Country
UK
Launch date
2023-03-26
Launch site
SRILR
Launch vehicle
Mass (kg)
RCS (m²)

Purposes: comms

External: N2YO · Heavens-Above · Gunter

§ Orbital elements

Epoch: 2026-05-25T00:09:48.773664Z

Period
108.94 min
Inclination
87.9261°
Eccentricity
0.0001802
Mean motion
13.21824985 rev/d
Perigee alt
1,176.4 km
Apogee alt
1,179.1 km
Semi-major
7,555.9 km
B*
6.0954e-5
RAAN
248.5796°
Arg perigee
93.7462°
Mean anomaly
266.3878°
Rev number
15,518

§ Raw data

ONEWEB-05791 56068U 23043Y   26145.00681451  .00000038  00000+0  60954-4 0  99982 56068  87.9261 248.5796 0001802  93.7462 266.3878 13.21824985155186

JSON: /api/v1/satellites/56068 · /tle

For live sub-satellite position, see the globe view (requires WebGL).

§ Visibility from observer

Set your observer location to see the next 7 days of passes ≥ 10°. The values pass through the URL so the page stays shareable.

No JS? Fill the form by hand. The geolocation button needs JavaScript.